When you browse on this site, cookies collect data to enhance your experience and personalize the content and advertising you see.
Visit our Privacy Policy to learn more. By continuing to use the site, you agree to this use of cookies and data.
  • In Czech Republic
  • List of Countries
  • For 7 days
  • Water Temperature
  • Weather Map
  • Weather Widgets
  • user-avatar
    Login

    Hourly Weather Yoro

    Today, 10 April, Friday

    Time Temperature Precipitation Wind Pressure Humidity
    00:00 +24°C° 0 mm 1 mps 699 mmHg 71%
    01:00 +24°C° 0 mm 1 mps 699 mmHg 71%
    02:00 +23°C° 0 mm 1 mps 698 mmHg 71%
    03:00 +23°C° 0 mm 1 mps 698 mmHg 71%
    04:00 +23°C° 0 mm 1 mps 698 mmHg 72%
    05:00 +23°C° 0 mm 1 mps 698 mmHg 73%
    06:00 +22°C° 0 mm 1 mps 698 mmHg 74%
    07:00 +26°C° 0 mm 1 mps 699 mmHg 61%
    08:00 +30°C° 0 mm 1 mps 700 mmHg 47%
    09:00 +34°C° 0 mm 1 mps 701 mmHg 34%
    10:00 +35°C° 0 mm 1 mps 701 mmHg 29%
    11:00 +37°C° 0 mm 1 mps 700 mmHg 23%
    12:00 +40°C° 0 mm 1 mps 700 mmHg 18%
    13:00 +39°C° 0 mm 2 mps 699 mmHg 19%
    14:00 +39°C° 0 mm 2 mps 698 mmHg 20%
    15:00 +39°C° 0 mm 2 mps 698 mmHg 21%
    16:00 +36°C° 0 mm 2 mps 697 mmHg 32%
    17:00 +32°C° 0 mm 2 mps 697 mmHg 43%
    18:00 +29°C° 0 mm 1 mps 697 mmHg 53%
    19:00 +28°C° 0 mm 1 mps 698 mmHg 59%
    20:00 +27°C° 0 mm 1 mps 698 mmHg 65%
    21:00 +26°C° 0 mm 1 mps 699 mmHg 71%
    22:00 +25°C° 0 mm 1 mps 699 mmHg 67%
    23:00 +25°C° 0 mm 1 mps 699 mmHg 64%

    Tomorrow, 11 April, Saturday

    Time Temperature Precipitation Wind Pressure Humidity
    00:00 +25°C° 0 mm 1 mps 699 mmHg 60%
    01:00 +24°C° 0 mm 1 mps 698 mmHg 62%
    02:00 +24°C° 0 mm 1 mps 698 mmHg 63%
    03:00 +23°C° 0 mm 1 mps 698 mmHg 65%
    04:00 +23°C° 0 mm 1 mps 698 mmHg 67%
    05:00 +23°C° 0 mm 1 mps 698 mmHg 69%
    06:00 +23°C° 0 mm 1 mps 699 mmHg 72%
    07:00 +26°C° 0 mm 1 mps 700 mmHg 61%
    08:00 +30°C° 0 mm 1 mps 700 mmHg 50%
    09:00 +33°C° 0 mm 1 mps 701 mmHg 39%
    10:00 +35°C° 0 mm 1 mps 701 mmHg 32%
    11:00 +37°C° 0 mm 2 mps 701 mmHg 26%
    12:00 +39°C° 0 mm 2 mps 700 mmHg 19%
    13:00 +39°C° 0 mm 2 mps 700 mmHg 19%
    14:00 +39°C° 0 mm 2 mps 699 mmHg 19%
    15:00 +39°C° 0 mm 3 mps 698 mmHg 19%
    16:00 +36°C° 0 mm 2 mps 698 mmHg 28%
    17:00 +32°C° 0 mm 2 mps 698 mmHg 37%
    18:00 +29°C° 0 mm 1 mps 697 mmHg 46%
    19:00 +28°C° 0 mm 1 mps 698 mmHg 49%
    20:00 +27°C° 0 mm 1 mps 698 mmHg 51%
    21:00 +25°C° 0 mm 1 mps 699 mmHg 54%
    22:00 +25°C° 0 mm 1 mps 699 mmHg 57%
    23:00 +25°C° 0 mm 1 mps 699 mmHg 61%

    Day after tomorrow, 12 April, Sunday

    Time Temperature Precipitation Wind Pressure Humidity
    00:00 +24°C° 0 mm 2 mps 698 mmHg 64%
    01:00 +24°C° 0 mm 2 mps 698 mmHg 70%
    02:00 +23°C° 0 mm 1 mps 698 mmHg 77%
    03:00 +23°C° 0 mm 1 mps 698 mmHg 83%
    04:00 +22°C° 0 mm 1 mps 698 mmHg 85%
    05:00 +22°C° 0 mm 1 mps 699 mmHg 86%
    06:00 +22°C° 0 mm 1 mps 699 mmHg 88%
    07:00 +25°C° 0 mm 2 mps 700 mmHg 73%
    08:00 +28°C° 0 mm 2 mps 700 mmHg 59%
    09:00 +31°C° 0 mm 2 mps 701 mmHg 44%
    10:00 +34°C° 0 mm 2 mps 701 mmHg 36%
    11:00 +36°C° 0 mm 2 mps 701 mmHg 29%
    12:00 +38°C° 0 mm 2 mps 700 mmHg 22%
    13:00 +38°C° 0 mm 2 mps 700 mmHg 20%
    14:00 +39°C° 0 mm 2 mps 699 mmHg 18%
    15:00 +39°C° 0 mm 2 mps 698 mmHg 16%
    16:00 +37°C° 0 mm 2 mps 698 mmHg 22%
    17:00 +33°C° 0 mm 1 mps 698 mmHg 28%
    18:00 +31°C° 0 mm 1 mps 698 mmHg 33%
    19:00 +29°C° 0 mm 1 mps 699 mmHg 40%
    20:00 +28°C° 0 mm 1 mps 699 mmHg 47%
    21:00 +27°C° 0 mm 1 mps 700 mmHg 55%
    22:00 +26°C° 0 mm 2 mps 700 mmHg 59%
    23:00 +26°C° 0 mm 2 mps 699 mmHg 63%

    13 April, Monday

    Time Temperature Precipitation Wind Pressure Humidity
    00:00 +25°C° 0 mm 2 mps 699 mmHg 67%
    01:00 +25°C° 0 mm 2 mps 699 mmHg 71%
    02:00 +24°C° 0 mm 1 mps 699 mmHg 74%
    03:00 +24°C° 0 mm 1 mps 699 mmHg 78%
    04:00 +23°C° 0 mm 1 mps 699 mmHg 80%
    05:00 +23°C° 0 mm 1 mps 699 mmHg 82%
    06:00 +23°C° 0 mm 1 mps 699 mmHg 84%
    07:00 +26°C° 0 mm 1 mps 700 mmHg 71%
    08:00 +29°C° 0 mm 1 mps 701 mmHg 58%
    09:00 +34°C° 0 mm 2 mps 702 mmHg 45%
    10:00 +35°C° 0 mm 1 mps 701 mmHg 38%
    11:00 +37°C° 0 mm 1 mps 701 mmHg 31%
    12:00 +40°C° 0 mm 1 mps 701 mmHg 24%
    13:00 +39°C° 0 mm 2 mps 700 mmHg 24%
    14:00 +39°C° 0 mm 2 mps 699 mmHg 24%
    15:00 +39°C° 0 mm 2 mps 699 mmHg 24%
    16:00 +36°C° 0 mm 2 mps 698 mmHg 31%
    17:00 +34°C° 0 mm 2 mps 698 mmHg 39%
    18:00 +31°C° 0 mm 1 mps 698 mmHg 47%
    19:00 +30°C° 0 mm 1 mps 699 mmHg 51%
    20:00 +29°C° 0 mm 1 mps 699 mmHg 55%
    21:00 +28°C° 0 mm 1 mps 700 mmHg 59%
    22:00 +27°C° 0 mm 1 mps 700 mmHg 60%
    23:00 +26°C° 0 mm 1 mps 700 mmHg 61%

    14 April, Tuesday

    Time Temperature Precipitation Wind Pressure Humidity
    00:00 +25°C° 0 mm 1 mps 700 mmHg 62%
    01:00 +25°C° 0 mm 1 mps 700 mmHg 65%
    02:00 +24°C° 0 mm 1 mps 699 mmHg 69%
    03:00 +24°C° 0 mm 1 mps 699 mmHg 73%
    04:00 +23°C° 0 mm 1 mps 699 mmHg 75%
    05:00 +23°C° 0 mm 1 mps 699 mmHg 77%
    06:00 +23°C° 0 mm 1 mps 700 mmHg 80%
    07:00 +26°C° 0 mm 1 mps 700 mmHg 68%
    08:00 +29°C° 0 mm 1 mps 701 mmHg 56%
    09:00 +33°C° 0 mm 1 mps 702 mmHg 45%
    10:00 +34°C° 0 mm 1 mps 702 mmHg 40%
    11:00 +35°C° 0 mm 1 mps 701 mmHg 35%
    12:00 +38°C° 0 mm 2 mps 701 mmHg 30%
    13:00 +37°C° 0.1 mm 2 mps 700 mmHg 34%
    14:00 +35°C° 0.1 mm 2 mps 699 mmHg 38%
    15:00 +34°C° 0.1 mm 2 mps 698 mmHg 42%
    16:00 +31°C° 0.2 mm 2 mps 698 mmHg 52%
    17:00 +29°C° 0.2 mm 1 mps 698 mmHg 62%
    18:00 +28°C° 0.2 mm 1 mps 698 mmHg 71%
    19:00 +26°C° 0.1 mm 1 mps 699 mmHg 76%
    20:00 +25°C° 0.1 mm 1 mps 699 mmHg 81%
    21:00 +24°C° 0.1 mm 1 mps 700 mmHg 86%
    22:00 +24°C° 0 mm 1 mps 700 mmHg 81%
    23:00 +23°C° 0 mm 1 mps 700 mmHg 77%

    15 April, Wednesday

    Time Temperature Precipitation Wind Pressure Humidity
    00:00 +23°C° 0 mm 1 mps 700 mmHg 73%
    01:00 +22°C° 0 mm 1 mps 699 mmHg 72%
    02:00 +22°C° 0 mm 1 mps 699 mmHg 71%
    03:00 +21°C° 0 mm 1 mps 699 mmHg 70%
    04:00 +21°C° 0 mm 1 mps 699 mmHg 72%
    05:00 +21°C° 0 mm 1 mps 699 mmHg 73%
    06:00 +21°C° 0 mm 1 mps 699 mmHg 74%
    07:00 +25°C° 0 mm 1 mps 700 mmHg 60%
    08:00 +29°C° 0 mm 1 mps 701 mmHg 46%
    09:00 +33°C° 0 mm 1 mps 702 mmHg 33%
    10:00 +34°C° 0 mm 1 mps 702 mmHg 27%
    11:00 +36°C° 0 mm 1 mps 701 mmHg 22%
    12:00 +39°C° 0 mm 2 mps 701 mmHg 17%
    13:00 +39°C° 0 mm 2 mps 700 mmHg 17%
    14:00 +38°C° 0 mm 2 mps 699 mmHg 18%
    15:00 +38°C° 0 mm 2 mps 698 mmHg 18%
    16:00 +35°C° 0 mm 2 mps 698 mmHg 29%
    17:00 +31°C° 0 mm 2 mps 698 mmHg 41%
    18:00 +29°C° 0 mm 1 mps 698 mmHg 52%
    19:00 +27°C° 0 mm 1 mps 698 mmHg 60%
    20:00 +26°C° 0 mm 1 mps 699 mmHg 68%
    21:00 +24°C° 0 mm 1 mps 699 mmHg 76%
    22:00 +24°C° 0 mm 1 mps 699 mmHg 71%
    23:00 +24°C° 0 mm 1 mps 699 mmHg 66%
    Show more